TimeCDT,TemperatureF,Dew PointF,Humidity,Sea Level PressureIn,VisibilityMPH,Wind Direction,Wind SpeedMPH,Gust SpeedMPH,PrecipitationIn,Events,Conditions,WindDirDegrees,DateUTC
12:56 AM,73.9,66.0,76,30.04,10.0,Calm,Calm,-,N/A,,Clear,0,2013-09-17 05:56:00
1:56 AM,73.0,66.0,79,30.04,10.0,Calm,Calm,-,N/A,,Clear,0,2013-09-17 06:56:00
2:56 AM,72.0,66.0,81,30.03,10.0,Calm,Calm,-,N/A,,Clear,0,2013-09-17 07:56:00
3:56 AM,73.0,66.0,79,30.02,10.0,Calm,Calm,-,N/A,,Clear,0,2013-09-17 08:56:00
4:56 AM,71.1,66.9,87,30.02,10.0,Calm,Calm,-,N/A,,Clear,0,2013-09-17 09:56:00
5:56 AM,71.1,66.9,87,30.03,10.0,Calm,Calm,-,N/A,,Clear,0,2013-09-17 10:56:00
6:56 AM,70.0,66.9,90,30.04,8.0,Calm,Calm,-,N/A,,Clear,0,2013-09-17 11:56:00
7:56 AM,75.0,68.0,79,30.06,10.0,Calm,Calm,-,N/A,,Clear,0,2013-09-17 12:56:00
9:56 AM,87.1,70.0,57,30.09,10.0,Variable,4.6,-,N/A,,Clear,0,2013-09-17 14:56:00
10:56 AM,90.0,70.0,52,30.08,10.0,ENE,5.8,-,N/A,,Clear,70,2013-09-17 15:56:00
11:56 AM,93.0,66.9,42,30.06,10.0,Variable,3.5,-,N/A,,Clear,0,2013-09-17 16:56:00
12:56 PM,91.9,64.9,41,30.04,10.0,Variable,4.6,-,N/A,,Partly Cloudy,0,2013-09-17 17:56:00
1:56 PM,95.0,64.0,36,30.00,10.0,Variable,4.6,-,N/A,,Mostly Cloudy,0,2013-09-17 18:56:00
2:56 PM,96.1,63.0,33,29.97,10.0,Variable,3.5,-,N/A,,Scattered Clouds,0,2013-09-17 19:56:00
3:56 PM,95.0,63.0,34,29.95,10.0,Variable,4.6,-,N/A,,Clear,0,2013-09-17 20:56:00
4:56 PM,95.0,63.0,34,29.94,10.0,Variable,4.6,-,N/A,,Mostly Cloudy,0,2013-09-17 21:56:00
5:56 PM,93.9,63.0,36,29.94,10.0,Variable,3.5,-,N/A,,Clear,0,2013-09-17 22:56:00
6:56 PM,90.0,63.0,40,29.95,10.0,Calm,Calm,-,N/A,,Clear,0,2013-09-17 23:56:00
7:56 PM,82.0,64.9,56,29.96,10.0,Calm,Calm,-,N/A,,Clear,0,2013-09-18 00:56:00
8:56 PM,80.1,66.9,64,29.98,10.0,Calm,Calm,-,N/A,,Clear,0,2013-09-18 01:56:00
9:56 PM,78.1,66.9,68,29.99,10.0,Calm,Calm,-,N/A,,Clear,0,2013-09-18 02:56:00
10:56 PM,75.9,66.9,74,29.99,10.0,Calm,Calm,-,N/A,,Clear,0,2013-09-18 03:56:00
11:56 PM,75.9,68.0,76,29.99,10.0,Calm,Calm,-,N/A,,Clear,0,2013-09-18 04:56:00